Flag for Niger Weather past 2 weeks in Niamey, Niger

Now
75 °F

Clear.


Feels Like: 75 °F
Forecast: 77 / 92 °F
Wind: 9 mph from Southwest

Location: Niamey-Aero

Current Time: Jul 23, 2014 at 8:50:25 AM

Latest Report: Jul 23, 2014 at 6:00 AM


Visibility: 10 mi

Pressure: 29.95 "Hg

Humidity: 89%

Dew point: 72 °F

Location of NiameyLocation

Historic Weather in Niamey — Graph

°F

Niamey temperature yesterday

Maximum temperature yesterday: 86 °F (at 12:00 AM)
Minimum temperature yesterday: 72 °F (at 11:00 AM)
Average temperature yesterday: 79 °F

Past Weeks' High & Low Weather Summary

 TemperatureHumidityPressure
High99 °F (Jul 15, 3:00 PM)100% (Jul 9, 7:00 AM)30.04 "Hg (Jul 9, 7:00 AM)
Low70 °F (Jul 13, 5:00 AM)30% (Jul 8, 5:00 PM)29.77 "Hg (Jul 16, 5:00 PM)
Average86 °F63%29.92 "Hg
* Reported Jul 8 6:00 AM — Jul 23 6:00 AM, Niamey, Weather by CustomWeather, © 2014

Note: Actual official high and low records may vary slightly from our data, if they occured in-between our weather recording intervals... More about our weather records

Advertising

Niamey weather history for previous 24 hours

 ConditionsComfort  
Time TempWeatherWind HumidityBarometerVisibility
6:00 AM
Jul 23
75 °FClear.9 mph89%29.95 "Hg10 mi
5:00 AM75 °FPassing clouds.6 mph89%29.95 "HgN/A
4:00 AM73 °FPassing clouds.7 mph100%29.95 "HgN/A
3:00 AM73 °FClear.5 mph100%29.95 "Hg10 mi
2:00 AM73 °FClear.5 mph100%29.95 "Hg10 mi
1:00 AM73 °FClear.5 mph100%29.95 "Hg10 mi
12:00 AM73 °FClear.6 mph100%29.98 "Hg10 mi
5:00 PM
Jul 22
77 °FPassing clouds.5 mph83%29.89 "HgN/A
4:00 PM77 °FPassing clouds.7 mph79%29.89 "HgN/A
3:00 PM77 °FPassing clouds.6 mph79%29.89 "HgN/A
2:00 PM75 °FPassing clouds.5 mph78%29.92 "HgN/A
1:00 PM73 °FThunderstorms. Passing clouds.6 mph89%29.92 "HgN/A
12:00 PM73 °FThunderstorms. Partly sunny.15 mph94%30.04 "HgN/A
11:00 AM72 °FThunderstorms. Scattered clouds.17 mph100%30.04 "Hg2 mi
10:00 AM79 °FPartly sunny.18 mph79%30.04 "Hg1 mi
9:00 AM82 °FPassing clouds.8 mph70%29.95 "Hg4 mi
8:00 AM81 °FClear.8 mph74%29.95 "Hg4 mi
Weather by CustomWeather, © 2014

See weather overviewHow to use our weather pages